Location: Stonelick Lake State Park
(39.2170°N, 84.0850°W)
Time: 12:33:02
(UTC-04:00)

Amateur Radio Satellites - All Passes

Search period start: 02 July 2015 12:03
Search period end: 03 July 2015 12:03
Location: Stonelick Lake State Park, 39.2170°N, 84.0850°W

Satellite Date Start Highest point End Downlink Frequencies (MHz)
Time Altitude Azimuth
UWE-3 02 Jul 12:03:20 12:07:11 35° 288° (WNW) 12:11:04 435.000/436.395/437.385
COMPASS 1 02 Jul 12:04:12 12:05:34 11° 295° (WNW) 12:06:42 437.405
ANTELSAT 02 Jul 12:09:31 12:13:18 29° 264° (W) 12:17:00 437.575/2403.000
DELFI C3 02 Jul 12:11:08 12:14:42 29° 289° (WNW) 12:18:13 145.870
TIGRISAT 02 Jul 12:23:34 12:26:54 21° 266° (W) 12:30:08 435.000
VELOX 1 02 Jul 12:23:41 12:28:00 51° 100° (E) 12:32:17 145.980
50 SAT 02 Jul 12:31:12 12:35:06 79° 102° (ESE) 12:39:02 437.505
QB50P1 02 Jul 12:41:50 12:45:36 30° 264° (W) 12:49:20 145.935-145.965
DX 1 02 Jul 12:42:44 12:46:58 50° 287° (WNW) 12:51:09 434.975-435.025
HO-68 02 Jul 12:44:57 12:47:45 12° 307° (NW) 12:50:06 435.675
CUBEBUG 2 02 Jul 12:45:54 12:47:01 11° 295° (WNW) 12:47:54 437.445
NANOSAT C BR1 02 Jul 12:57:42 13:00:57 21° 267° (W) 13:04:05 145.865
ZACube-1 02 Jul 12:58:14 13:00:10 13° 294° (WNW) 13:01:54 437.345
DUCHIFAT 1 02 Jul 13:05:57 13:08:51 17° 268° (W) 13:11:36 145.980
Oscar 19 02 Jul 13:07:14 13:10:44 19° 65° (ENE) 13:14:23 437.125/150
UKube-1 02 Jul 13:07:49 13:11:37 29° 290° (WNW) 13:15:19 .
POLYITAN 1 02 Jul 13:08:08 13:10:48 16° 269° (W) 13:13:17 437.675
PHONESAT 2.4 02 Jul 13:08:49 13:12:16 70° 356° (N) 13:15:44 2401.200-2431.200
AISAT 02 Jul 13:10:04 13:14:18 46° 287° (WNW) 13:18:29 437.250
SPROUT 02 Jul 13:11:31 13:15:05 26° 95° (E) 13:18:41 437.525
Cosmos 2499 02 Jul 13:19:37 13:25:55 33° 288° (WNW) 13:32:08 435.465 / 435.565
VERMONT LUNAR 02 Jul 13:26:42 13:29:52 72° 197° (SSW) 13:33:02 437.305
ESTCUBE 1 02 Jul 13:33:15 13:37:32 42° 288° (WNW) 13:41:47 437.505/2401.250
RS-15 02 Jul 13:34:14 13:45:52 67° 245° (WSW) 13:57:49 29.354- 29.394
BUGSAT 1 02 Jul 13:34:56 13:36:52 12° 270° (W) 13:38:34 437.445
CUBEBUG 1 02 Jul 13:35:48 13:39:59 44° 287° (WNW) 13:44:05 437.445
HUMSAT D 02 Jul 13:38:14 13:39:03 10° 295° (WNW) 13:39:38 437.325/437.525
VELOX 1 02 Jul 14:01:38 14:04:10 15° 295° (WNW) 14:06:31 145.980
TISAT 1 02 Jul 14:02:24 14:06:35 66° 101° (E) 14:10:43 437.305
ISS 02 Jul 14:26:49 14:28:13 12° 14° (NNE) 14:29:40 145.825
Gurwin Techsat 1B 02 Jul 14:31:20 14:36:04 35° 69° (ENE) 14:40:54 435.225
Oscar 19 02 Jul 14:44:45 14:49:45 50° 260° (W) 14:54:45 437.125/150
PHONESAT 2.4 02 Jul 14:46:54 14:50:23 84° 198° (SSW) 14:53:53 2401.200-2431.200
SPROUT 02 Jul 14:47:34 14:51:06 25° 290° (WNW) 14:54:32 437.525
ITAMSAT 1 02 Jul 14:50:54 14:55:56 51° 72° (ENE) 15:01:01 435.822/435.867
BEESAT 02 Jul 14:57:10 15:01:40 39° 98° (E) 15:06:10 436.000
AO-7 02 Jul 15:03:15 15:09:16 24° 56° (NE) 15:15:36 29.400- 29.500
VERMONT LUNAR 02 Jul 15:04:15 15:06:30 18° 211° (SSW) 15:08:43 437.305
YUBILEINY 02 Jul 15:04:18 15:12:30 44° 74° (ENE) 15:20:50 435.215
SWISSCUBE 02 Jul 15:12:12 15:17:00 63° 101° (E) 15:21:45 437.505
HORYU 2 02 Jul 15:14:00 15:14:35 10° 63° (ENE) 15:15:25 437.375
ITUPSAT 1 02 Jul 15:16:20 15:21:08 62° 101° (E) 15:25:54 437.325
Cosmos 2491 02 Jul 15:24:10 15:31:18 30° 85° (E) 15:38:43 435.465 / 435.565
TISAT 1 02 Jul 15:40:53 15:41:51 11° 296° (WNW) 15:42:35 437.305
PCSat 02 Jul 15:41:22 15:43:13 12° 104° (ESE) 15:45:25 145.827
JAS-2 02 Jul 15:41:52 15:46:34 37° 70° (ENE) 15:51:27 435.910
RS-15 02 Jul 15:51:27 15:56:38 13° 261° (W) 16:00:35 29.354- 29.394
ISS 02 Jul 16:02:11 16:05:17 43° 33° (NNE) 16:08:24 145.825
STARS 02 Jul 16:10:45 16:14:13 23° 94° (E) 16:17:46 437.465
Gurwin Techsat 1B 02 Jul 16:11:34 16:16:07 28° 266° (W) 16:20:36 435.225
BEESAT 3 02 Jul 16:15:27 16:16:43 11° 40° (NE) 16:18:06 437.485
BEESAT 2 02 Jul 16:24:23 16:25:36 11° 40° (NE) 16:27:00 435.950
PHONESAT 2.4 02 Jul 16:25:16 16:28:10 24° 209° (SSW) 16:31:03 2401.200-2431.200
ITAMSAT 1 02 Jul 16:32:09 16:35:48 18° 269° (W) 16:39:15 435.822/435.867
BEESAT 02 Jul 16:35:37 16:39:16 21° 293° (WNW) 16:42:48 436.000
AIST 1 02 Jul 16:38:29 16:42:45 54° 94° (E) 16:47:04
HORYU 2 02 Jul 16:46:16 16:50:40 76° 257° (WSW) 16:55:06 437.375
KKS-1 02 Jul 16:48:41 16:53:07 77° 284° (WNW) 16:57:31 437.445
SWISSCUBE 02 Jul 16:51:44 16:54:22 14° 296° (WNW) 16:56:47 437.505
MOZHAYETS 4 02 Jul 16:52:12 16:53:12 11° 87° (E) 16:54:31
AO-7 02 Jul 16:52:56 17:01:17 80° 255° (WSW) 17:09:43 29.400- 29.500
ITUPSAT 1 02 Jul 16:55:52 16:58:34 15° 296° (WNW) 17:01:02 437.325
Cosmos 2504 02 Jul 16:59:05 17:05:09 26° 69° (ENE) 17:11:47 435.465 / 435.565
YUBILEINY 02 Jul 17:01:20 17:09:17 39° 272° (W) 17:17:06 435.215
Cosmos 2491 02 Jul 17:19:06 17:27:46 57° 283° (WNW) 17:36:24 435.465 / 435.565
PCSat 02 Jul 17:20:36 17:26:01 82° 299° (WNW) 17:31:29 145.827
AIST 2 02 Jul 17:27:22 17:29:21 13° 41° (NE) 17:31:28 435.215
JAS-2 02 Jul 17:27:50 17:31:57 23° 268° (W) 17:35:59 435.910
ISS 02 Jul 17:39:09 17:41:30 18° 228° (SW) 17:43:46 145.825
Cubesat XI-IV 02 Jul 17:45:08 17:48:10 16° 63° (ENE) 17:51:27 437.490
STARS 02 Jul 17:46:52 17:50:41 29° 290° (WNW) 17:54:26 437.465
SO-50 02 Jul 17:49:29 17:53:54 43° 116° (ESE) 17:58:30 436.795
BEESAT 3 02 Jul 17:51:14 17:55:18 86° 241° (WSW) 17:59:18 437.485
BEESAT 2 02 Jul 18:00:14 18:04:20 88° 240° (WSW) 18:08:21 435.950
O/OREOS (USA 219) 02 Jul 18:02:10 18:06:04 29° 60° (ENE) 18:10:04 437.305
AIST 1 02 Jul 18:18:53 18:20:52 12° 292° (WNW) 18:22:37
MOZHAYETS 4 02 Jul 18:26:21 18:31:00 69° 285° (WNW) 18:35:36
CUBESAT XI-V 02 Jul 18:48:12 18:50:58 16° 90° (E) 18:53:55 437.345
CUTE-I 02 Jul 18:48:59 18:54:13 60° 73° (ENE) 18:59:32 437.470
AO-7 02 Jul 18:51:11 18:55:32 14° 273° (W) 18:59:14 29.400- 29.500
Cosmos 2504 02 Jul 18:51:30 18:59:04 61° 267° (W) 19:07:10 435.465 / 435.565
AIST 2 02 Jul 19:04:17 19:08:29 75° 241° (WSW) 19:12:36 435.215
PCSat 02 Jul 19:07:29 19:10:23 14° 319° (NW) 19:13:05 145.827
JUGNU 02 Jul 19:20:23 19:21:37 11° 177° (S) 19:22:53 437.505
BRITE-PL 02 Jul 19:21:20 19:24:10 15° 66° (ENE) 19:27:09 437.365/2234.400
Cubesat XI-IV 02 Jul 19:22:25 19:27:46 68° 258° (WSW) 19:33:09 437.490
SO-50 02 Jul 19:30:41 19:34:38 25° 314° (NW) 19:38:38 436.795
HO-68 02 Jul 19:37:13 19:41:03 16° 56° (NE) 19:45:15 435.675
CUSAT 1 02 Jul 19:39:38 19:41:38 19° 73° (ENE) 19:43:38 437.405
O/OREOS (USA 219) 02 Jul 19:41:40 19:45:25 25° 256° (WSW) 19:49:06 437.305
GONETS M04 02 Jul 19:41:42 19:46:39 17° 60° (ENE) 19:52:07
PRISM 02 Jul 19:57:00 20:00:25 24° 95° (E) 20:03:51 437.425
DOVE 4 02 Jul 20:03:13 20:05:05 12° 66° (ENE) 20:07:11 437.250
CUBESAT XI-V 02 Jul 20:24:13 20:28:44 48° 287° (WNW) 20:33:12 437.345
STRAND 1 02 Jul 20:27:55 20:33:00 58° 100° (E) 20:38:03 437.568
DANDE 02 Jul 20:28:24 20:31:19 75° 79° (E) 20:33:54 436.750
CUTE-I 02 Jul 20:31:22 20:34:47 16° 270° (W) 20:37:59 437.470
SEEDS 02 Jul 20:37:02 20:39:39 17° 68° (ENE) 20:42:25 437.485
GOMX 1 02 Jul 20:43:13 20:48:16 52° 74° (ENE) 20:53:04 467.674
AAUSAT CUBESAT 2 02 Jul 20:53:22 20:56:01 17° 68° (ENE) 20:58:48 437.432
BRITE-PL 02 Jul 20:56:39 21:02:14 74° 259° (WSW) 21:07:30 437.365/2234.400
CINEMA 3 02 Jul 21:02:35 21:06:00 22° 70° (ENE) 21:09:25 145.822/145.860
M-CUBED/EXP-1 PRIME 02 Jul 21:11:42 21:13:20 12° 96° (E) 21:15:16 437.505
COMPASS 1 02 Jul 21:16:23 21:20:10 36° 72° (ENE) 21:24:01 437.405
Cosmos 2499 02 Jul 21:19:03 21:22:16 13° 61° (ENE) 21:26:10 435.465 / 435.565
CUTE 1.7 + AOD 2 02 Jul 21:19:21 21:23:29 63° 75° (ENE) 21:27:40 437.475
HO-68 02 Jul 21:20:44 21:27:53 84° 73° (ENE) 21:35:05 435.675
CANX-2 02 Jul 21:22:20 21:26:31 78° 76° (ENE) 21:30:45 2200.000
DELFI C3 02 Jul 21:24:43 21:25:54 11° 66° (ENE) 21:27:16 145.870
UWE-3 02 Jul 21:25:06 21:27:06 14° 67° (ENE) 21:29:17 435.000/436.395/437.385
PRISM 02 Jul 21:32:16 21:35:49 26° 291° (WNW) 21:39:17 437.425
GONETS M04 02 Jul 21:36:20 21:45:05 86° 83° (E) 21:53:47
DOVE 4 02 Jul 21:37:28 21:42:26 71° 258° (WSW) 21:47:08 437.250
SRMSAT 02 Jul 21:56:32 21:57:55 11° 181° (S) 21:59:19 437.500
CUBEBUG 2 02 Jul 22:03:49 22:07:57 46° 74° (ENE) 22:12:01 437.445
DX 1 02 Jul 22:04:12 22:05:28 11° 64° (ENE) 22:06:58 434.975-435.025
STRAND 1 02 Jul 22:08:25 22:11:47 17° 296° (WNW) 22:14:57 437.568
SEEDS 02 Jul 22:11:16 22:15:10 38° 263° (W) 22:19:05 437.485
AUBIESAT-1 02 Jul 22:11:59 22:16:05 50° 105° (ESE) 22:20:29 437.475
ZACube-1 02 Jul 22:15:10 22:19:02 37° 73° (ENE) 22:22:55 437.345
GOMX 1 02 Jul 22:23:09 22:26:40 17° 269° (W) 22:29:52 467.674
UKube-1 02 Jul 22:26:26 22:29:20 18° 67° (ENE) 22:32:22 .
AAUSAT CUBESAT 2 02 Jul 22:27:31 22:31:22 36° 263° (W) 22:35:13 437.432
Oscar 11 02 Jul 22:28:00 22:32:17 87° 257° (WSW) 22:36:37 145.826/435.025
AISAT 02 Jul 22:32:35 22:34:36 13° 65° (ENE) 22:36:50 437.250
CINEMA 3 02 Jul 22:38:55 22:43:05 33° 263° (W) 22:47:02 145.822/145.860
M-CUBED/EXP-1 PRIME 02 Jul 22:44:18 22:48:25 59° 290° (WNW) 22:52:51 437.505
HUMSAT D 02 Jul 22:50:26 22:54:14 38° 73° (ENE) 22:58:04 437.325/437.525
FUNcube-1 02 Jul 22:51:50 22:56:05 83° 261° (W) 23:00:16 145.935
COMPASS 1 02 Jul 22:53:16 22:56:01 17° 269° (W) 22:58:38 437.405
DELFI C3 02 Jul 22:56:37 23:00:33 55° 260° (W) 23:04:30 145.870
ESTCUBE 1 02 Jul 22:56:52 22:59:23 15° 66° (ENE) 23:02:05 437.505/2401.250
CUBEBUG 1 02 Jul 22:57:05 22:58:51 12° 65° (ENE) 23:00:49 437.445
UWE-3 02 Jul 22:59:07 23:03:17 50° 261° (W) 23:07:23 435.000/436.395/437.385
Cosmos 2499 02 Jul 23:09:03 23:16:53 76° 81° (E) 23:25:20 435.465 / 435.565
HO-68 02 Jul 23:12:13 23:16:35 16° 272° (W) 23:20:31 435.675
50 SAT 02 Jul 23:14:23 23:17:52 35° 73° (ENE) 23:21:25 437.505
UNISAT 6 02 Jul 23:17:57 23:21:01 19° 93° (E) 23:24:16 437.425
VELOX 1 02 Jul 23:20:08 23:24:17 40° 72° (ENE) 23:28:30 145.980
GONETS M04 02 Jul 23:35:28 23:40:55 18° 280° (W) 23:45:51
DX 1 02 Jul 23:36:51 23:41:13 68° 259° (W) 23:45:36 434.975-435.025
CUBEBUG 2 02 Jul 23:42:35 23:44:56 14° 269° (W) 23:47:03 437.445
AUBIESAT-1 02 Jul 23:47:58 23:50:33 16° 297° (WNW) 23:53:03 437.475
QB50P2 02 Jul 23:48:05 23:50:39 16° 92° (E) 23:53:22 145.880/145.840
POPSAT HIP 1 02 Jul 23:49:21 23:51:53 16° 92° (E) 23:54:34 437.405
ZACube-1 02 Jul 23:52:45 23:55:35 17° 268° (W) 23:58:13 437.345
UKube-1 03 Jul 00:01:07 00:05:12 39° 262° (W) 00:09:17 .
ANTELSAT 03 Jul 00:01:28 00:05:48 59° 100° (E) 00:10:12 437.575/2403.000
SPROUT 03 Jul 00:05:15 00:08:14 19° 68° (ENE) 00:11:19 437.525
AISAT 03 Jul 00:06:18 00:10:44 59° 259° (W) 00:15:10 437.250
TIGRISAT 03 Jul 00:14:42 00:19:04 80° 102° (ESE) 00:23:30 435.000
QB50P1 03 Jul 00:27:27 00:31:29 44° 99° (E) 00:35:31 145.935-145.965
HUMSAT D 03 Jul 00:27:40 00:30:12 15° 269° (W) 00:32:33 437.325/437.525
PCSat 03 Jul 00:28:54 00:30:21 11° 38° (NE) 00:32:04 145.827
CUBEBUG 1 03 Jul 00:30:19 00:34:43 63° 259° (WSW) 00:39:09 437.445
ESTCUBE 1 03 Jul 00:31:26 00:35:51 52° 260° (W) 00:40:19 437.505/2401.250
NANOSAT C BR1 03 Jul 00:42:19 00:46:31 67° 101° (ESE) 00:50:41 145.865
DUCHIFAT 1 03 Jul 00:49:56 00:54:09 81° 102° (ESE) 00:58:19 145.980
50 SAT 03 Jul 00:50:28 00:52:42 14° 269° (W) 00:54:46 437.505
POLYITAN 1 03 Jul 00:52:32 00:56:45 89° 284° (WNW) 01:00:58 437.675
TISAT 1 03 Jul 00:53:20 00:57:20 42° 73° (ENE) 01:01:21 437.305
UNISAT 6 03 Jul 00:53:55 00:57:57 36° 288° (WNW) 01:01:59 437.425
VELOX 1 03 Jul 00:57:56 01:01:03 18° 268° (W) 01:04:00 145.980
Cosmos 2499 03 Jul 01:03:55 01:09:26 20° 276° (W) 01:14:47 435.465 / 435.565
BUGSAT 1 03 Jul 01:15:29 01:19:33 77° 285° (WNW) 01:23:34 437.445
QB50P2 03 Jul 01:22:48 01:26:45 38° 288° (WNW) 01:30:39 145.880/145.840
POPSAT HIP 1 03 Jul 01:24:02 01:27:57 39° 288° (WNW) 01:31:51 437.405
Cosmos 2491 03 Jul 01:37:06 01:40:25 13° 56° (ENE) 01:44:23 435.465 / 435.565
SPROUT 03 Jul 01:40:04 01:44:05 36° 263° (W) 01:48:04 437.525
ANTELSAT 03 Jul 01:40:07 01:42:11 13° 294° (WNW) 01:44:03 437.575/2403.000
RS-15 03 Jul 01:48:19 01:55:24 21° 102° (ESE) 02:03:14 29.354- 29.394
BEESAT 03 Jul 02:02:35 02:07:01 40° 71° (ENE) 02:11:30 436.000
QB50P1 03 Jul 02:04:32 02:07:00 15° 293° (WNW) 02:09:19 145.935-145.965
PCSat 03 Jul 02:09:36 02:14:59 63° 58° (ENE) 02:20:22 145.827
SWISSCUBE 03 Jul 02:17:34 02:22:16 63° 74° (ENE) 02:27:03 437.505
NANOSAT C BR1 03 Jul 02:21:00 02:21:51 10° 296° (WNW) 02:22:27 145.865
ITUPSAT 1 03 Jul 02:21:58 02:26:41 63° 74° (ENE) 02:31:27 437.325
SO-50 03 Jul 02:21:58 02:26:24 32° 49° (NE) 02:30:48 436.795
TISAT 1 03 Jul 02:30:45 02:33:21 15° 269° (W) 02:35:46 437.305
AIST 1 03 Jul 02:48:35 02:50:24 13° 68° (ENE) 02:52:25
Gurwin Techsat 1B 03 Jul 02:49:51 02:52:36 15° 89° (E) 02:55:38 435.225
Oscar 19 03 Jul 02:57:10 03:02:15 62° 101° (E) 03:07:20 437.125/150
ITAMSAT 1 03 Jul 03:05:44 03:09:25 20° 92° (E) 03:13:15 435.822/435.867
STARS 03 Jul 03:07:08 03:10:12 19° 67° (ENE) 03:13:23 437.465
Cosmos 2491 03 Jul 03:30:36 03:39:22 71° 80° (E) 03:48:02 435.465 / 435.565
BEESAT 03 Jul 03:41:30 03:45:03 20° 267° (W) 03:48:28 436.000
KKS-1 03 Jul 03:45:27 03:49:56 84° 74° (ENE) 03:54:25 437.445
PCSat 03 Jul 03:54:30 03:57:57 17° 254° (WSW) 04:01:09 145.827
RS-15 03 Jul 03:55:33 04:06:27 88° 299° (WNW) 04:17:46 29.354- 29.394
SWISSCUBE 03 Jul 03:58:28 04:00:39 13° 271° (W) 04:02:34 437.505
SO-50 03 Jul 04:02:31 04:06:57 32° 246° (WSW) 04:11:13 436.795
ITUPSAT 1 03 Jul 04:02:52 04:05:05 13° 271° (W) 04:07:03 437.325
YUBILEINY 03 Jul 04:03:41 04:11:56 52° 91° (E) 04:20:18 435.215
AIST 1 03 Jul 04:24:14 04:28:29 51° 266° (W) 04:32:40
Gurwin Techsat 1B 03 Jul 04:27:51 04:33:08 65° 287° (WNW) 04:38:23 435.225
JAS-2 03 Jul 04:34:22 04:40:38 45° 98° (E) 04:47:40 435.910
Oscar 19 03 Jul 04:38:01 04:41:09 16° 296° (WNW) 04:44:05 437.125/150
HORYU 2 03 Jul 04:39:08 04:42:34 22° 94° (E) 04:46:07 437.375
STARS 03 Jul 04:42:19 04:46:25 37° 262° (W) 04:50:30 437.465
ITAMSAT 1 03 Jul 04:44:12 04:49:13 47° 289° (WNW) 04:54:10 435.822/435.867
AO-7 03 Jul 04:56:10 05:03:43 38° 97° (E) 05:11:21 29.400- 29.500
MOZHAYETS 4 03 Jul 05:26:57 05:31:31 84° 260° (W) 05:36:08
Cosmos 2491 03 Jul 05:28:57 05:35:29 23° 278° (W) 05:41:38 435.465 / 435.565
Cosmos 2504 03 Jul 05:38:48 05:43:18 19° 83° (E) 05:48:08 435.465 / 435.565
CUBESAT XI-V 03 Jul 05:51:10 05:53:42 15° 66° (ENE) 05:56:28 437.345
YUBILEINY 03 Jul 06:01:27 06:09:09 33° 290° (WNW) 06:16:41 435.215
RS-15 03 Jul 06:11:23 06:20:44 30° 328° (NNW) 06:30:11 29.354- 29.394
HORYU 2 03 Jul 06:15:18 06:19:17 32° 290° (WNW) 06:23:13 437.375
JAS-2 03 Jul 06:19:49 06:25:36 33° 291° (WNW) 06:31:51 435.910
PRISM 03 Jul 06:46:50 06:49:24 17° 67° (ENE) 06:52:07 437.425
AO-7 03 Jul 06:48:45 06:56:41 48° 295° (WNW) 07:04:31 29.400- 29.500
CUTE-I 03 Jul 07:07:46 07:12:08 26° 94° (E) 07:16:35 437.470
CUBESAT XI-V 03 Jul 07:26:06 07:30:43 57° 260° (W) 07:35:23 437.345
Cosmos 2504 03 Jul 07:28:51 07:36:04 68° 280° (W) 07:43:12 435.465 / 435.565
Cubesat XI-IV 03 Jul 07:40:51 07:46:07 53° 100° (E) 07:51:21 437.490
STRAND 1 03 Jul 07:42:36 07:47:43 75° 75° (ENE) 07:52:54 437.568
BEESAT 3 03 Jul 07:43:29 07:46:34 22° 113° (ESE) 07:49:47 437.485
BEESAT 2 03 Jul 07:53:25 07:56:32 22° 113° (ESE) 07:59:47 435.950
DANDE 03 Jul 07:54:33 07:58:54 18° 91° (E) 08:03:03 436.750
O/OREOS (USA 219) 03 Jul 08:13:11 08:17:19 39° 106° (ESE) 08:21:31 437.305
PRISM 03 Jul 08:20:37 08:24:33 40° 261° (W) 08:28:30 437.425
RS-15 03 Jul 08:31:18 08:38:27 18° 3° (N) 08:45:50 29.354- 29.394
ISS 03 Jul 08:40:53 08:43:26 22° 133° (SE) 08:46:01 145.825
CUSAT 1 03 Jul 08:41:49 08:48:31 56° 97° (E) 08:53:42 437.405
GONETS M04 03 Jul 08:42:43 08:48:14 20° 81° (E) 08:54:12
CUTE-I 03 Jul 08:47:22 08:52:20 38° 290° (WNW) 08:57:13 437.470
GOMX 1 03 Jul 08:48:16 08:50:07 13° 89° (E) 08:52:08 467.674
HO-68 03 Jul 08:51:44 08:55:36 16° 88° (E) 08:59:55 435.675
AUBIESAT-1 03 Jul 08:59:39 09:02:49 47° 69° (ENE) 09:06:07 437.475
AIST 2 03 Jul 09:01:19 09:05:00 30° 114° (ESE) 09:08:45 435.215
BRITE-PL 03 Jul 09:03:38 09:07:36 35° 96° (E) 09:11:26 437.365/2234.400
CUTE 1.7 + AOD 2 03 Jul 09:07:36 09:09:09 12° 89° (E) 09:10:56 437.475
CANX-2 03 Jul 09:10:03 09:12:22 15° 90° (E) 09:14:53 2200.000
PHONESAT 2.4 03 Jul 09:12:26 09:13:02 10° 144° (SE) 09:13:44 2401.200-2431.200
VERMONT LUNAR 03 Jul 09:13:39 09:16:37 44° 158° (SSE) 09:19:38 437.305
BEESAT 3 03 Jul 09:20:40 09:24:22 32° 308° (NW) 09:28:05 437.485
Cubesat XI-IV 03 Jul 09:21:59 09:25:51 20° 295° (WNW) 09:29:32 437.490
STRAND 1 03 Jul 09:25:32 09:27:35 12° 272° (W) 09:29:18 437.568
BEESAT 2 03 Jul 09:30:43 09:34:27 32° 308° (NW) 09:38:12 435.950
M-CUBED/EXP-1 PRIME 03 Jul 09:32:35 09:35:45 44° 256° (WSW) 09:38:59 437.505
DANDE 03 Jul 09:34:21 09:41:58 75° 280° (W) 09:47:50 436.750
DOVE 4 03 Jul 09:38:11 09:41:48 29° 96° (E) 09:45:28 437.250
O/OREOS (USA 219) 03 Jul 09:53:40 09:56:57 19° 304° (WNW) 10:00:08 437.305
SEEDS 03 Jul 09:56:23 10:00:18 35° 97° (E) 10:04:14 437.485
AAUSAT CUBESAT 2 03 Jul 10:11:13 10:15:05 35° 97° (E) 10:18:58 437.432
ISS 03 Jul 10:16:39 10:19:42 37° 328° (NNW) 10:22:45 145.825
UNISAT 6 03 Jul 10:17:00 10:19:24 15° 67° (ENE) 10:21:58 437.425
Oscar 11 03 Jul 10:17:18 10:20:17 18° 92° (E) 10:23:23 145.826/435.025
GOMX 1 03 Jul 10:24:37 10:28:39 44° 287° (WNW) 10:32:35 467.674
CUSAT 1 03 Jul 10:26:28 10:31:11 20° 287° (WNW) 10:34:58 437.405
CINEMA 3 03 Jul 10:34:10 10:38:17 58° 100° (E) 10:42:28 145.822/145.860
GONETS M04 03 Jul 10:35:22 10:44:11 80° 279° (W) 10:52:59
COMPASS 1 03 Jul 10:35:48 10:40:03 83° 102° (ESE) 10:44:17 437.405
HO-68 03 Jul 10:37:07 10:44:18 85° 287° (WNW) 10:51:28 435.675
DELFI C3 03 Jul 10:37:21 10:40:22 20° 93° (E) 10:43:29 145.870
AIST 2 03 Jul 10:39:54 10:43:34 27° 311° (NW) 10:47:12 435.215
CUTE 1.7 + AOD 2 03 Jul 10:41:16 10:45:27 54° 286° (WNW) 10:49:38 437.475
QB50P2 03 Jul 10:41:27 10:42:53 12° 65° (ENE) 10:44:32 145.880/145.840
FUNcube-1 03 Jul 10:41:52 10:44:51 19° 93° (E) 10:48:00 145.935
POPSAT HIP 1 03 Jul 10:42:35 10:43:59 12° 65° (ENE) 10:45:36 437.405
BRITE-PL 03 Jul 10:42:55 10:45:55 18° 293° (WNW) 10:48:42 437.365/2234.400
CANX-2 03 Jul 10:44:29 10:48:35 44° 287° (WNW) 10:52:39 2200.000
RS-15 03 Jul 10:45:49 10:55:55 34° 36° (NE) 11:06:37 29.354- 29.394
PHONESAT 2.4 03 Jul 10:47:15 10:50:34 46° 157° (SSE) 10:53:53 2401.200-2431.200
UWE-3 03 Jul 10:49:54 10:53:40 31° 96° (E) 10:57:32 435.000/436.395/437.385
VERMONT LUNAR 03 Jul 10:50:23 10:53:30 71° 353° (N) 10:56:39 437.305
ANTELSAT 03 Jul 10:59:37 11:03:41 44° 73° (ENE) 11:07:46 437.575/2403.000
TIGRISAT 03 Jul 11:12:27 11:16:41 60° 75° (ENE) 11:20:53 435.000
DOVE 4 03 Jul 11:16:21 11:19:27 20° 291° (WNW) 11:22:28 437.250
QB50P1 03 Jul 11:19:15 11:22:56 30° 71° (ENE) 11:26:40 145.935-145.965
DANDE 03 Jul 11:23:42 11:25:42 11° 294° (WNW) 11:27:05 436.750
DX 1 03 Jul 11:26:58 11:30:17 22° 94° (E) 11:33:40 434.975-435.025
CUBEBUG 2 03 Jul 11:32:01 11:36:11 64° 284° (WNW) 11:40:24 437.445
SEEDS 03 Jul 11:32:50 11:35:52 19° 292° (WNW) 11:38:47 437.485
NANOSAT C BR1 03 Jul 11:33:40 11:37:40 42° 73° (ENE) 11:41:42 145.865
ZACube-1 03 Jul 11:40:19 11:44:33 85° 285° (WNW) 11:48:50 437.345
DUCHIFAT 1 03 Jul 11:41:00 11:45:06 51° 74° (ENE) 11:49:13 145.980
POLYITAN 1 03 Jul 11:44:13 11:48:23 59° 75° (ENE) 11:52:35 437.675
Cosmos 2499 03 Jul 11:45:02 11:51:58 62° 93° (E) 11:58:57 435.465 / 435.565
AAUSAT CUBESAT 2 03 Jul 11:47:28 11:50:28 19° 292° (WNW) 11:53:20 437.432
UKube-1 03 Jul 11:49:31 11:53:30 35° 97° (E) 11:57:28 .
UNISAT 6 03 Jul 11:51:44 11:55:53 45° 261° (W) 11:59:59 437.425
Oscar 11 03 Jul 11:52:36 11:56:36 36° 288° (WNW) 12:00:34 145.826/435.025
ISS 03 Jul 11:55:35 11:56:50 12° 348° (NNW) 11:58:02 145.825
